Location: Bord�res
(43.2000°N, 0.2167°W)
Time: 13:15:20
(UTC+00:00)

FALCON 9 DEB - Pass Details

Date: 03 March 2021
Orbit: 424 x 435 km, 53.0° (Epoch: 13 April)

Event Time Altitude Azimuth Distance (km) Brightness Sun altitude
Rises 19:57:01 0° 304° (NW) 2,400 8.1 -23.3°
Reaches altitude 10° 19:59:08 10° 303° (WNW) 1,528 6.8 -23.7°
Enters shadow 20:01:32 42° 293° (WNW) 624 4.3 -24.1°
